sat.trackr.live / text

‹ back to catalog

ECHOSTAR 23

NORAD 42070 · 2017-014A

PAYLOAD ACTIVE UNKNOWN

§ Identity

Operator
Country
US
Launch date
2017-03-16
Launch site
AFETR
Launch vehicle
Mass (kg)
RCS (m²)
13.16

Purposes: comms

External: N2YO · Heavens-Above · Gunter

§ Orbital elements

Epoch: 2026-09-18T23:54:38.769984Z

Period
1,436.10 min
Inclination
0.0177°
Eccentricity
0.0002068
Mean motion
1.00271618 rev/d
Perigee alt
35,777.9 km
Apogee alt
35,795.4 km
Semi-major
42,164.8 km
B*
0.0000e+0
RAAN
166.8902°
Arg perigee
8.7464°
Mean anomaly
71.0473°
Rev number
3,486

§ Raw data

ECHOSTAR 231 42070U 17014A   26261.99628206 -.00000061  00000+0  00000+0 0  99912 42070   0.0177 166.8902 0002068   8.7464  71.0473  1.00271618 34866

JSON: /api/v1/satellites/42070 · /tle

For live sub-satellite position, see the globe view (requires WebGL).

§ Visibility from observer

Set your observer location to see the next 7 days of passes ≥ 10°. The values pass through the URL so the page stays shareable.

No JS? Fill the form by hand. The geolocation button needs JavaScript.